Regional Weather Roundup
Issued by NWS Wakefield, VA

Home | Current Version | Previous Version | Graphics & Text | Print | Product List | Glossary On
Versions: 1 2 3 4 5 6 7 8 9 10 11 12 13 14 15 16 17 18 19 20 21 22 23 24 25 26 27 28 29 30 31 32 33 34 35 36 37 38 39 40 41 42 43 44 45 46 47 48 49
000
ASUS41 KAKQ 011415
RWRAKQ

REGIONAL WEATHER ROUNDUP
NATIONAL WEATHER SERVICE WAKEFIELD VA
1000 AM EDT SAT AUG 01 2015

Note: "fair" indicates few or no clouds below 12,000 feet with no
significant weather and/or obstructions to visibility. * = Denotes
station may not report precipitation (e.g., rain,snow,etc.),
thunder or fog.

VAZ042-051-052>054-056-011500-
NORTHERN VIRGINIA

CITY           SKY/WX    TMP DP  RH WIND       PRES   REMARKS
WASH NATIONAL  PTSUNNY   85  63  47 W6        29.89F
DULLES         PTSUNNY   80  64  58 S5        29.90S
FORT BELVOIR   NOT AVBL
QUANTICO       NOT AVBL
FREDERICKSBRG* SUNNY     83  68  60 CALM      29.89F
STAFFORD*      SUNNY     80  65  61 S3        29.94S
WARRENTON      CLOUDY    78  69  73 SW3       29.90S
CULPEPER*      CLOUDY    77  67  71 CALM      29.91S
MANASSAS*      PTSUNNY   79  68  69 CALM      29.90S
LEESBURG*      SUNNY     82  66  57 W7        29.91S
WINCHESTER     SUNNY     82  61  47 W10       29.92S
FRONT ROYAL*   FAIR      77  64  65 SW3       29.92S
LURAY*         FAIR      81  64  57 S7        29.94S
$$

VAZ048-049-060>072-079>083-011500-
CENTRAL AND SOUTH CENTRAL VIRGINIA

CITY           SKY/WX    TMP DP  RH WIND       PRES   REMARKS
RICHMOND       MOSUNNY   84  64  50 VRB3      29.91F
CHESTERFIELD*  FAIR      84  57  39 W5        29.93S
PETERSBURG*    SUNNY     83  72  69 SW3       29.93S
HANOVER        SUNNY     81  65  58 W5        29.93S
TAPPAHANNOCK*  SUNNY     80  64  57 CALM      29.91F
QUINTON*       FAIR      79  68  68 CALM      29.90F
CHARLOTTSVILLE MOSUNNY   79  67  66 S6        29.92S
GORDONSVILLE*  PTSUNNY   81  64  57 SW6       29.91F
ORANGE*        CLOUDY    81  64  57 S5        29.93S
LOUISA*        SUNNY     82  66  57 W6        29.91F
BUMPASS*       FAIR      80  67  64 SW6       29.91F
FARMVILLE*     SUNNY     82  61  47 W5        29.92F
CREWE*         FAIR     N/A N/A N/A NW5       29.93S
FORT PICKETT*  FAIR      81  64  55 W6        29.94S
CHASE CITY*    FAIR      81  68  65 CALM      29.95S
CLARKSVILLE*   FAIR      79  64  61 NW3       29.95S
SOUTH HILL*    SUNNY     79  65  64 CALM      30.00S
LAWRENCEVILLE* FAIR      81  66  61 SW3       29.94S
EMPORIA*       SUNNY     81  64  57 W3        29.94S
$$

VAZ088>098-011500-
SOUTHEAST VIRGINIA

CITY           SKY/WX    TMP DP  RH WIND       PRES   REMARKS
NORFOLK        SUNNY     84  69  60 SW7       29.90F
VIRGINIA BEACH PTSUNNY   87  72  60 SW7       29.90F
NORFOLK NAVAL  MOSUNNY   81  71  71 W7        29.92F
WEST POINT*    SUNNY     83  63  50 CALM      29.92S
SALUDA*        FAIR      80  67  63 W6        29.90S
NEWPORT NEWS   SUNNY     83  66  56 W7        29.91F
LANGLEY AFB    SUNNY     83  71  67 SW12      29.90F
FORT EUSTIS    SUNNY     82  64  54 W3        29.90S
WILLIAMSBURG*  SUNNY     84  68  58 W6        29.92F
HR EXEC AP*    FAIR      82  73  74 W5        29.93F
FRANKLIN*      SUNNY     82  68  62 CALM      29.93S
WAKEFIELD      SUNNY     83  66  56 S5        29.92S
$$

VAZ020-022-025-037-045-011500-
WEST CENTRAL AND SOUTHWEST VIRGINIA

CITY           SKY/WX    TMP DP  RH WIND       PRES   REMARKS
STAUNTON*      SUNNY     81  62  51 SW5       29.97F
WAYNESBORO*    FAIR      75  61  60 W7        29.98S
HOT SPRINGS VA SUNNY     66  58  76 W10       30.08S
LYNCHBURG      SUNNY     78  64  61 SW6       29.97F
DANVILLE       SUNNY     77  65  66 SW5       29.97R
SOUTH BOSTON*  FAIR      78  66  66 CALM      29.95F
MARTINSVILLE   SUNNY     80  62  54 CALM      30.01S
ROANOKE        SUNNY     78  59  51 W9        30.00S
BLACKSBURG     SUNNY     73  61  67 W6        30.08S
DUBLIN*          N/A     76  60  57 W7        30.07S
MARION*        SUNNY     69  60  74 SW8       30.12S
HILLSVILLE*    SUNNY     70  58  66 NW9G16    30.08S
RICHLANDS*     FAIR      69  61  76 SW3       30.11S
WISE*          SUNNY     75  54  46 N5        30.12S
ABINGDON*      SUNNY     73  61  65 W5        30.09S
$$

MDZ021>025-VAZ099-100-011500-
SOUTHERN MARYLAND AND THE DELMARVA PENINSULA

CITY           SKY/WX    TMP DP  RH WIND       PRES   REMARKS
PATUXENT RIVER MOSUNNY   82  68  62 VRB6      29.89S
BAY BRIDGE APT   N/A     82  61  47 W6        29.88S
LEONARDTOWN    SUNNY     81  64  57 CALM      29.91S
DOVER          SUNNY     83  67  59 W10       29.85F
GEORGETOWN     SUNNY     83  66  56 SW7       29.88F
EASTON         SUNNY     86  68  54 W5        29.92S
CAMBRIDGE      SUNNY     82  64  54 W5        29.88S
SALISBURY      SUNNY     83  69  62 SW9       29.88F
OCEAN CITY     SUNNY     85  65  51 W10       29.88F
WALLOPS ISLAND SUNNY     84  72  67 W6        29.90S
ACCOMACK*      SUNNY     82  81  94 SW10      29.90S HX  95
$$

NCZ012>017-030>032-011500-
NORTH CENTRAL AND EASTERN NORTH CAROLINA

CITY           SKY/WX    TMP DP  RH WIND       PRES   REMARKS
ROANOKE RAPIDS FAIR      82  61  47 CALM      29.94S
RALEIGH        MOSUNNY   81  64  56 CALM      29.96S
ELIZABETH CITY SUNNY     83  74  74 SW6       29.93S
AHOSKIE*       SUNNY     82  70  68 CALM      29.93S
EDENTON*         N/A     82  72  72 SW3       29.93S
CURRITUCK*     SUNNY     83  68  60 CALM      29.94R
KILL DEVIL HLS SUNNY     89  67  48 SE9       29.91S
MANTEO         PTSUNNY   82  75  78 S10       29.93R
CAPE HATTERAS  CLOUDY    78  72  81 SE13      29.93S
TARBORO*         N/A     83  71  65 W5        29.94S
GOLDSBORO      SUNNY     81  74  79 VRB1      29.93R
WASHINGTON     SUNNY     81  76  84 CALM      29.94R
GREENVILLE     SUNNY     82  75  78 SE3       29.95S
NEW BERN       MOSUNNY   83  75  77 W3        29.94R
WILMINGTON     PTSUNNY   81  75  82 VRB3      29.93R
$$

VAZ048-011500-
ELSEWHERE

CITY           SKY/WX    TMP DP  RH WIND       PRES   REMARKS
HARRISBURG PA  MOSUNNY   80  62  54 W8        29.86S
BALTIMORE      PTSUNNY   79  64  60 W6        29.88S
ANNAPOLIS      PTSUNNY   82  62  50 W7        29.87S
ANDREWS AFB    MOSUNNY   83  63  49 W7        29.89S
PHILADELPHIA   PTSUNNY   83  61  47 W10       29.85F
HENDERSON NC   SUNNY     81  59  47 NW5       29.96S
GREENSBORO     MOSUNNY   82  58  43 NW6       29.98S
ROCKY MOUNT    SUNNY     85  65  51 CALM      29.94S
$$

VAZ100-011500-
MARINE

STATION/POSITION TIME  TEMP    WIND        PRES    WAVE   SWELL
                       AIR SEA DIR/SP/G            HT/PER HT/PER
                 (UTC) (F)     (DEG/KT/KT) (MB)    (FT/S) (FT/S)
BRANDYWINE LGT   1300   76 76  230/ 12/ 12 1011.7R
CAPE MAY NJ      1300   75 75  200/  8/ 11 1011.1R
LEWES DE         1300   79 73  230/  7/ 10 1011.4R
15NM E FENWICK I 1350   79 79  230/ 14/ 16 1011.7F   3/ 9   2/ 9
OCEAN-CITY-INLET 1300   79 73  260/ 11/ 13 1011.3R
WACHAPREAGUE VA  1300   82 81  250/  6/  9 1012.7S
GOOSES REEF MD   1400   81 81  250/  6/  8 1013.1S
COVE POINT MD    1300   80     260/  2/  4 1012.8R
SOLOMONS ISLAND  1300      82                N/A
BISHOPS HEAD MD  1300   79 79  230/  9/ 10 1011.2S
PINEY POINT MD   1300          270/  3/  4   N/A
POTOMAC MD       1400   79 83  280/  8/ 10 1011.0F   1
CAMBRIDGE MD     1300   80 84  220/  7/  9 1011.2R
LEWISETTA VA     1300   77 83  260/  6/  8 1012.0S
RAPPAHANNOCK LGT 1300          240/ 11/ 12 1013.2R
STINGRAY PT      1400   80 83  240/ 10/ 10 1012.5F   1
YORK RVR RNG VA  1300   81     250/  9/ 10 1012.2R
YORKTOWN VA      1300   79 83  260/  5/  7 1012.5R
JAMESTOWN VA     1400   81 85  300/  4/  6   N/A
DOMINION TERM VA 1300   78     270/  4/  5 1013.1R
KIPTOPEKE VA     1300      81  240/  9/ 11   N/A
CHES BAY BRIDGE  1300   79 79  210/ 10/ 11 1012.5F
CAPE HENRY VA    1300   81     230/  7/  9   N/A
CHESAPEAKE LGHT  1300   79     230/  9/ 10 1013.7F
WILLOUBY STN VA  1300   78     250/  7/  8 1013.9S
CAPE HENRY BUOY  1328      81                N/A     2/ 8
1ST LANDING BUOY 1400      80              1012.4F   1/ 3
CAPE CHARLES BUO 1326      80                N/A     2/ 8   2/ 8
OFFSHORE WE BUOY 1311      81                N/A     3/ 8   3/ 8
64NM E OF VA BCH 1350   81 81  200/  8/  8 1013.0S   3/ 8   3/ 8
DUCK PIER NC     1300   79 77   50/  3/  4 1012.4S
44100 DUCK FRF   1324      80                N/A     3/ 8
44056 DUCK FRF   1311      77                N/A     2/ 9
OREGON INLET NC  1300   80 81  150/  8/ 12 1013.1R
HATTERAS NC      1300   78 80  120/ 11/ 16 1012.9S
DIAMOND SHLS NC  1350   76 84  130/ 12/ 14 1013.5F   3/ 7   3/ 7
CAPE LOOKOUT NC  1400   79     170/  8/  9 1013.1R
$$



USA.gov is the U.S. government's official web portal to all federal, state and local government web resources and services.